Tracking 29768 objects as of 3-Oct-2024
HD Live streaming from Space Station
objects crossing your sky now

STARLINK-31468

Track STARLINK-31468 now!
10-day predictions
STARLINK-31468 is classified as:


NORAD ID: 58998
Int'l Code: 2024-036A
Perigee: 481.6 km
Apogee: 483.2 km
Inclination: 53.2 °
Period: 94.1 minutes
Semi major axis: 6853 km
RCS: Unknown
Launch date: February 23, 2024
Source: United States (US)
Launch site: AIR FORCE WESTERN TEST RANGE (AFWTR)
Your satellite tracking list
Your tracking list is empty




NASA's NSSDC Master Catalog

Two Line Element Set (TLE):
1 58998U 24036A   24277.47435363  .00000620  00000-0  33059-4 0  9993
2 58998  53.1603 343.5034 0001124 102.9620 257.1507 15.30182138 35387
Source of the keplerian elements: AFSPC